Location: *
(49.5667°N, 1.3667°W)
Time: 17:19:05
(UTC+00:00)

Cosmos 2084 Rocket - Pass Details

Date: 20 September 2019
Orbit: 571 x 610 km, 62.8° (Epoch: 20 October)

Event Time Altitude Azimuth Distance (km) Brightness Sun altitude
Rises 20:46:37 0° 232° (SW) 2,859 7.2 -24.9°
Reaches altitude 10° 20:48:54 10° 236° (SW) 1,960 6.3 -25.2°
Maximum altitude 20:53:18 62° 317° (NW) 690 3.9 -25.8°
Enters shadow 20:54:16 48° 10° (N) 798 4.2 -25.9°
